Location: Владивосток
(43.1151°N, 131.8856°E)
Time: 00:49:12
(UTC+10:00)

FENGYUN 1C DEB - Visible Passes

Search period start: 22 May 2025 00:00
Search period end: 01 June 2025 00:00
Orbit: 716 x 742 km, 98.8° (Epoch: 20 May)

Date Brightness Start Highest point End Pass type
(mag) Time Alt. Az. Time Alt. Az. Time Alt. Az.
22 May ? 00:59:49 17° E 01:01:30 20° ENE 01:05:04 10° NNE visible
22 May ? 02:39:16 51° WSW 02:39:21 51° W 02:44:09 10° NNW visible
23 May ? 01:51:25 51° ESE 01:52:10 57° ENE 01:56:58 10° N visible
23 May ? 03:30:51 17° W 03:30:51 17° W 03:33:54 10° NW visible
24 May ? 01:03:33 18° E 01:05:17 22° ENE 01:08:58 10° NNE visible
24 May ? 02:43:00 47° WSW 02:43:10 47° W 02:47:54 10° NNW visible
25 May ? 01:55:07 53° ESE 01:55:55 61° ENE 02:00:46 10° N visible
25 May ? 03:34:34 16° W 03:34:34 16° W 03:37:28 10° NW visible
26 May ? 01:07:14 19° E 01:08:59 23° ENE 01:12:47 10° NNE visible
26 May ? 02:46:40 43° WSW 02:46:55 44° W 02:51:36 10° NNW visible
27 May ? 01:58:45 55° ESE 01:59:37 66° ENE 02:04:28 10° N visible
27 May ? 03:38:11 15° W 03:38:15 15° W 03:40:57 10° WNW visible
28 May ? 01:10:50 20° E 01:12:37 25° ENE 01:16:31 10° N visible
28 May ? 02:50:16 40° WSW 02:50:35 41° W 02:55:13 10° NNW visible
29 May ? 02:02:19 56° SE 02:03:14 70° ENE 02:08:06 10° N visible
29 May ? 03:41:45 14° W 03:41:55 14° W 03:44:20 10° WNW visible
30 May ? 01:14:22 21° E 01:16:11 26° ENE 01:20:11 10° N visible
30 May ? 02:53:48 37° WSW 02:54:11 38° W 02:58:45 10° NNW visible
31 May ? 00:29:11 10° ENE 00:29:26 10° NE 00:29:41 10° NE visible
31 May ? 02:05:50 56° SE 02:06:47 75° ENE 02:11:40 10° N visible
31 May ? 03:45:15 12° W 03:45:30 13° W 03:47:35 10° WNW visible
